Tracking 29892 objects as of 21-Nov-2024
HD Live streaming from Space Station
objects crossing your sky now

SL-8 R/B

Track SL-8 R/B now!
10-day predictions


NORAD ID: 14547
Int'l Code: 1983-120B
Perigee: 946.6 km
Apogee: 1,014.4 km
Inclination: 82.9 °
Period: 104.5 minutes
Semi major axis: 7351 km
RCS: 4.4678 m2 (large)
Launch date: December 8, 1983
Source: Commonwealth of Independent States (former USSR) (CIS)
Launch site: PLESETSK MISSILE AND SPACE COMPLEX (PKMTR)

Note: This is a ROCKET BODY
Your satellite tracking list
Your tracking list is empty




NASA's NSSDC Master Catalog

Two Line Element Set (TLE):
1 14547U 83120B   24325.18401618  .00000129  00000-0  11389-3 0  9997
2 14547  82.9330 231.6862 0046131 191.3102 168.7024 13.77340947813610
Source of the keplerian elements: AFSPC